Date,TemperatureHighF,TemperatureAvgF,TemperatureLowF,DewpointHighF,DewpointAvgF,DewpointLowF,HumidityHigh,HumidityAvg,HumidityLow,PressureMaxIn,PressureMinIn,WindSpeedMaxMPH,WindSpeedAvgMPH,GustSpeedMaxMPH,PrecipitationSumIn
2013-2-1,28,16,1,-100,-100,-100,0,0,100,0.00,40.00,0,-999,0,0.00
2013-2-2,46,35,25,-100,-100,-100,0,0,100,0.00,40.00,0,-999,0,0.00
2013-2-3,48,37,29,-100,-100,-100,0,0,100,0.00,40.00,0,-999,0,0.00
2013-2-4,48,31,21,-100,-100,-100,0,0,100,0.00,40.00,0,-999,0,0.00
2013-2-5,53,36,23,-100,-100,-100,0,0,100,0.00,40.00,0,-999,0,0.00
2013-2-6,61,42,27,-100,-100,-100,0,0,100,0.00,40.00,0,-999,0,0.00
2013-2-7,50,42,29,-100,-100,-100,0,0,100,0.00,40.00,0,-999,0,0.00
2013-2-8,42,32,26,-100,-100,-100,0,0,100,0.00,40.00,0,-999,0,0.00
2013-2-9,49,37,27,-100,-100,-100,0,0,100,0.00,40.00,0,-999,0,0.00
2013-2-10,44,39,34,-100,-100,-100,0,0,100,0.00,40.00,0,-999,0,0.00
2013-2-11,45,33,22,-100,-100,-100,0,0,100,0.00,40.00,0,-999,0,0.00
2013-2-12,47,32,18,-100,-100,-100,0,0,100,0.00,40.00,0,-999,0,0.00
2013-2-13,53,38,23,-100,-100,-100,0,0,100,0.00,40.00,0,-999,0,0.00
2013-2-14,48,40,30,-100,-100,-100,0,0,100,0.00,40.00,0,-999,0,0.00
2013-2-15,38,27,14,-100,-100,-100,0,0,100,0.00,40.00,0,-999,0,0.00
2013-2-16,38,29,17,-100,-100,-100,0,0,100,0.00,40.00,0,-999,0,0.00
2013-2-17,58,39,23,-100,-100,-100,0,0,100,0.00,40.00,0,-999,0,0.00
2013-2-18,47,37,24,-100,-100,-100,0,0,100,0.00,40.00,0,-999,0,0.00
2013-2-19,32,24,15,-100,-100,-100,0,0,100,0.00,40.00,0,-999,0,0.00
2013-2-20,23,17,11,-100,-100,-100,0,0,100,0.00,40.00,0,-999,0,0.00
2013-2-21,22,20,17,-100,-100,-100,0,0,100,0.00,40.00,0,-999,0,0.00
2013-2-22,26,21,10,-100,-100,-100,0,0,100,0.00,40.00,0,-999,0,0.00
2013-2-23,36,20,3,-100,-100,-100,0,0,100,0.00,40.00,0,-999,0,0.00
2013-2-24,38,29,18,-100,-100,-100,0,0,100,0.00,40.00,0,-999,0,0.00
2013-2-25,35,32,30,-100,-100,-100,0,0,100,0.00,40.00,0,-999,0,0.00
2013-2-26,33,30,27,-100,-100,-100,0,0,100,0.00,40.00,0,-999,0,0.00
2013-2-27,40,31,25,-100,-100,-100,0,0,100,0.00,40.00,0,-999,0,0.00
2013-2-28,34,30,28,-100,-100,-100,0,0,100,0.00,40.00,0,-999,0,0.00